Theta_e
302 296 294 299 306 308 309 310 309 308 314 316 318 327 328 339 347 350 350 351 360 364 364 363 363 362 361 361 361 361 362 362
298 296 302 304 306 309 310 309 311 310 309 320 326 326 331 339 348 349 348 351 361 363 363 363 363 362 361 361 361 361 362 362
295 298 304 309 309 311 310 307 310 312 309 316 323 328 337 338 342 346 347 353 357 362 363 364 364 362 362 362 361 362 362 362
293 298 305 308 312 313 314 312 313 311 312 315 320 321 325 338 336 344 344 353 355 362 362 363 363 362 361 361 361 362 361 361
298 300 303 307 311 311 313 314 314 313 310 315 317 318 319 334 335 344 347 351 352 356 360 362 362 361 361 361 361 360 360 359
299 299 299 308 307 308 308 314 320 319 310 309 316 318 319 322 332 347 349 350 349 352 356 354 357 361 360 360 360 360 360 359
297 299 302 307 305 310 313 311 314 317 317 320 321 319 317 318 318 342 350 348 347 348 349 349 352 357 359 361 360 359 358 357
302 304 303 305 306 306 310 309 309 313 319 323 320 316 315 314 314 319 348 348 346 345 346 345 352 352 350 355 354 352 352 351
303 305 306 305 306 308 306 305 309 310 314 319 319 315 315 315 314 313 328 347 344 344 346 344 343 349 347 347 345 345 347 347
304 306 305 304 306 306 306 305 314 315 316 317 317 313 313 315 314 318 322 341 341 343 344 344 344 347 345 345 343 342 341 344
304 303 302 305 304 303 304 308 310 316 317 316 315 315 314 316 316 319 328 335 337 344 343 343 344 347 344 343 344 343 342 344
300 299 300 300 300 302 305 308 307 308 313 314 314 314 314 315 314 320 327 331 333 342 345 345 352 352 350 344 341 344 344 345
299 299 298 301 297 299 304 306 305 306 309 312 313 315 313 313 314 320 323 326 331 338 346 346 346 346 348 348 345 342 345 345
295 300 301 298 292 300 304 303 303 305 306 307 311 313 312 313 320 319 321 322 325 333 332 346 346 348 349 347 346 345 345 346
294 300 299 298 294 301 303 303 301 302 304 306 305 309 312 319 318 318 319 320 323 326 331 346 346 346 345 346 344 344 343 349
292 297 299 295 295 299 302 301 301 301 303 304 306 307 315 317 316 317 319 323 325 329 330 337 346 345 344 343 344 341 342 341
295 299 295 294 294 297 300 300 298 299 302 303 305 307 311 316 317 319 321 320 321 328 328 329 341 341 342 341 342 340 340 339
294 297 296 293 293 296 298 298 299 300 300 302 303 305 309 314 316 318 320 321 320 322 327 327 332 337 341 343 343 342 341 341
291 296 296 294 291 294 299 300 301 302 303 303 303 303 308 312 312 316 317 318 319 321 323 325 327 328 327 330 337 339 341 340
294 290 284 293 283 291 295 297 300 301 303 303 303 306 307 309 311 314 316 316 316 318 320 323 325 326 327 324 322 331 331 340
Wind_Speed
2 3 6 8 4 11 9 9 9 8 5 7 7 9 5 10 15 17 15 14 12 16 19 21 21 18 16 15 15 15 14 13
1 9 14 15 8 11 6 8 10 8 5 7 5 5 7 7 19 15 14 13 17 17 17 20 20 20 16 15 15 15 15 14
4 9 12 18 8 5 7 8 7 11 15 8 4 8 9 8 11 18 16 13 14 15 16 18 20 21 18 15 13 14 14 14
5 9 14 13 8 9 15 8 11 9 12 4 4 10 4 7 3 15 19 14 16 15 13 14 18 20 20 17 16 14 13 12
9 14 17 15 10 15 17 16 22 2 5 2 9 8 8 5 4 17 17 16 13 15 12 12 13 17 20 19 16 16 14 12
12 12 15 16 2 5 2 16 16 2 6 3 3 8 10 7 4 18 13 14 14 14 12 7 6 14 17 19 19 16 15 14
12 15 15 18 8 5 5 3 0 6 11 7 9 9 10 11 15 13 12 12 14 13 11 9 7 8 12 16 18 18 15 15
9 12 14 17 14 5 2 5 5 6 7 4 11 9 9 10 9 12 9 11 14 15 14 12 9 7 5 9 6 7 9 10
11 14 18 18 16 10 6 8 9 12 11 11 8 9 7 7 5 7 4 9 11 15 17 15 10 8 5 4 4 4 7 8
18 20 19 15 9 12 10 7 12 15 12 9 7 7 6 2 5 7 8 4 8 11 15 14 8 8 8 7 6 5 6 8
17 13 11 11 14 11 18 12 2 11 14 15 7 8 7 6 3 6 8 8 6 8 13 12 10 8 7 8 9 9 8 8
9 10 8 6 6 7 15 9 11 8 12 9 9 8 8 7 7 6 5 6 5 3 9 11 12 12 7 5 5 8 9 10
9 8 8 6 11 16 12 9 10 14 6 8 10 10 10 11 10 9 6 4 7 6 2 8 8 9 7 7 6 7 9 12
7 9 12 6 19 17 10 9 11 13 8 7 12 12 9 8 10 8 8 7 5 6 2 4 5 5 4 5 7 6 5 9
16 15 16 13 24 19 13 13 10 9 11 13 8 9 6 10 11 9 8 8 5 2 5 8 5 4 3 4 4 5 5 6
10 7 10 8 18 10 7 5 8 9 8 8 7 5 8 4 9 10 9 8 7 4 3 2 6 5 3 2 3 4 5 5
8 13 12 12 9 9 8 5 7 7 8 7 8 7 10 12 9 8 8 8 4 4 2 2 2 3 5 2 1 3 3 8
10 12 13 11 11 10 8 7 7 7 8 10 7 8 7 12 8 8 9 8 6 3 1 2 2 4 1 6 2 3 5 5
10 15 12 9 13 10 9 7 7 10 15 9 12 11 10 15 12 9 9 9 7 6 4 2 3 2 3 1 2 4 4 5
14 7 4 5 14 12 7 12 14 15 19 19 11 10 11 15 13 12 8 7 8 7 5 4 4 3 5 4 4 5 4 3
Wind_Direction
168 216 221 251 277 2 338 355 9 9 44 88 120 68 93 103 134 136 141 147 152 152 149 144 144 143 145 144 141 139 138 138
153 261 269 263 331 306 337 335 13 358 32 80 74 99 121 88 144 142 148 151 152 151 155 150 149 144 148 147 144 144 142 143
268 265 268 278 260 316 1 340 353 2 335 94 53 86 120 111 133 149 156 146 148 150 155 156 151 145 143 143 141 143 144 145
266 271 270 274 271 292 283 325 318 0 16 31 56 42 43 124 148 147 154 148 147 146 151 160 150 146 139 141 141 142 143 144
258 259 273 274 293 207 213 260 272 235 357 329 32 12 4 140 160 118 145 144 148 141 148 152 156 149 142 141 143 143 141 141
265 269 274 279 271 153 161 222 264 332 239 160 5 12 11 27 146 122 141 139 143 139 138 132 150 154 148 146 145 143 142 143
247 257 274 287 294 241 208 109 294 266 252 122 70 20 27 25 9 111 136 148 146 141 140 139 135 159 147 148 148 146 147 147
241 261 266 276 287 296 131 193 252 270 293 301 84 44 35 36 11 38 155 165 156 151 150 149 158 146 142 151 153 152 150 155
257 251 254 264 280 286 208 204 198 216 217 249 120 94 40 34 38 344 112 163 178 159 154 161 159 156 162 153 155 162 162 162
244 256 266 267 275 293 296 208 214 209 208 238 211 127 109 13 3 18 359 148 167 172 160 167 141 161 170 166 172 175 177 171
258 245 257 266 273 269 279 295 316 239 201 201 216 171 140 192 119 46 18 31 88 185 169 167 143 158 171 182 175 173 175 179
272 268 262 258 284 302 278 299 309 290 221 188 209 202 159 166 194 133 95 87 357 108 196 167 140 144 150 175 181 176 174 182
287 284 282 306 292 265 278 260 274 281 200 194 200 211 206 190 192 162 156 130 102 10 194 168 170 157 157 155 160 187 184 181
275 275 264 198 262 255 258 242 245 264 264 226 216 208 207 202 156 171 134 118 124 143 318 212 161 147 161 165 134 161 175 185
274 241 239 211 243 244 231 241 250 247 250 257 280 203 193 148 143 148 137 125 113 238 171 191 185 143 166 173 165 165 183 155
255 286 331 284 253 228 202 231 252 260 242 225 170 156 140 149 158 146 137 119 106 77 316 308 165 142 127 273 283 202 190 163
319 325 326 302 299 301 258 238 279 286 279 201 195 197 152 163 154 126 116 114 109 101 13 326 318 172 140 223 222 314 251 204
316 308 295 301 295 283 253 229 230 264 262 252 235 190 159 143 141 147 145 139 129 129 182 329 325 332 90 179 204 242 252 244
257 271 276 299 291 299 277 285 274 255 258 236 215 200 158 151 156 147 146 151 155 165 159 193 287 349 341 341 102 165 244 233
290 331 267 6 298 286 294 296 288 273 256 249 206 198 168 160 159 156 165 149 145 146 158 198 208 218 227 250 187 198 228 248